Showing default

YUNYAO-1 20, 58760

Orbit data source: Space-Track

YUNYAO-1 20, 58760 is a payload satellite owned by Yunyao yuhang (CN) in LEO that was launched on Thu, 11 Jan 2024 UTC via a YINLI-1 launch vehicle from the Yellow Sea Launch Area, China (YSLA). Payload-class satellites include a variety of spacecraft equipped with specific instruments for various scientific and technological missions. These include communications satellites like Starlink; space stations such as the ISS; scientific satellites like the Hubble; Earth observation satellites from companies like Planet Labs, Umbra, and HawkEye 360; GPS; miniature CubeSats for education and research; and military/defense satellites.

Loading next visibility...
Identifier
58760, 2024-009C
Orbit
LEO
Country
Flag of CNCN / PRC
Related business
Manufacturer
Changguang WJ
Mission
Operational Commercial Meteo Radio Occ.
Bus & Motor
YY-1, Unknown motor
Mass
~500 kg wet, ~500 kg dry
Launch date (UTC)
2024-01-11 (2 years ago)
Launch vehicle
YINLI-1
Launch site
Yellow Sea Launch Area, China (YSLA)
Object type
Payload
Rocket body
Debris
Shape & HBR
Box + 1 Pan, 2.5 m
Radar Cross Section
5.339 m², Medium (>0.1 m² and < 1m²)

Expand to show TLE details & history
Last TLE update: 8 hours ago

TLE from 8 hours ago
0 YUNYAO-1 20
1 58760U 24009C   26095.24769409  .00015352  00000-0  78245-3 0  9999
2 58760  49.9763 161.9717 0004497 352.7015   7.3871 15.16879593123618
Epoch: 2026-04-05T05:56Z
TLE epoch observation values (Epoch: 2026-04-05T05:56:40.769Z)
Latitude
Longitude
-120.75402°
Altitude
512.754 km
Speed
7.61 km/s
True Right ascension
10h 47m 53s
True Declination
0° 00' 00"
Sunlit
Object was in full shadow at epoch
Visualization orbit readout
Latitude
Unknown
Longitude
Unknown
Altitude
Unknown
Speed
Unknown
Apparent Right ascension
Unknown
Apparent Declination
Unknown
Sunlit
N/A
Visualization observer readout
Local Sidereal Time
19:28:33
Azimuth
Unknown
Elevation
Unknown
Doppler factor
Unknown
Orbital elements
Apogee altitude
519.152 km
Perigee altitude
512.951 km
Semi-major axis
6,894.189 km
Eccentricity
0.00045
Inclination
49.9763°
RAAN
161.9717°
Arg. of periapsis
352.7015°
True anomaly
7.39373°
Mean anomaly
7.3871°
Eccentric anomaly
7.39041°
Mean motion
3.79156 °/min
Orbital period
94.95 mins
BSTAR
0.00078245
Loading maneuver chart data...
Computing Atmospheric mass density...
Loading historical data...
Loading historical data...
Loading historical data...
Loading historical data...
Loading historical data...
Loading historical data...
Loading historical data...
Other satellites on launch #9 in the year 2024 (2024-01-11 UTC)

Documentation

Showing up to 5 results
|